Flag for U.S.A. Weather past 2 weeks in Fort Bragg, California, U.S.A.

Now
85 °F

Sunny.


Feels Like: 82 °F
Forecast: 49 / 62 °F
Wind: 8 mph from Northwest

Location: Ukiah Municipal

Current Time: Apr 19, 2015 at 6:06:16 PM

Latest Report: Apr 19, 2015 at 4:56 PM


Visibility: 10 mi

Pressure: 29.80 "Hg

Humidity: 24%

Dew point: 44 °F

Location of Fort BraggLocation

Historic Weather in Fort Bragg — Graph

°F

Fort Bragg temperature yesterday

Maximum temperature yesterday: 85 °F (at 2:56 PM)
Minimum temperature yesterday: 44 °F (at 5:56 AM)
Average temperature yesterday: 64 °F

Past Weeks' High & Low Weather Summary

 TemperatureHumidityPressure
High87 °F (Apr 19, 2:56 PM)93% (Apr 6, 1:56 AM)30.36 "Hg (Apr 6, 1:56 AM)
Low36 °F (Apr 6, 2:56 AM)14% (Apr 16, 2:56 PM)29.74 "Hg (Apr 7, 2:56 AM)
Average54 °F62%30.02 "Hg
* Reported Apr 4 4:56 PM — Apr 19 4:56 PM, Fort Bragg, Weather by CustomWeather, © 2015

Note: Actual official high and low records may vary slightly from our data, if they occured in-between our weather recording intervals... More about our weather records

Advertising

Fort Bragg weather history for previous 24 hours

 ConditionsComfort  
Time TempWeatherWind HumidityBarometerVisibility
4:56 PM
Sun, Apr 19
85 °FSunny.8 mph24%29.80 "Hg10 mi
3:56 PM87 °FSunny.8 mph25%29.80 "Hg10 mi
2:56 PM87 °FSunny.7 mph23%29.81 "Hg10 mi
1:56 PM86 °FSunny.3 mph23%29.83 "Hg10 mi
12:56 PM81 °FSunny.5 mph33%29.86 "Hg10 mi
11:56 AM76 °FSunny.3 mph36%29.89 "Hg10 mi
10:56 AM69 °FSunny.No wind45%29.91 "Hg10 mi
9:56 AM63 °FSunny.No wind54%29.93 "Hg10 mi
8:56 AM57 °FSunny.No wind67%29.94 "Hg10 mi
7:56 AM51 °FSunny.No wind80%29.95 "Hg10 mi
6:56 AM46 °FClear.No wind83%29.94 "Hg10 mi
5:56 AM47 °FClear.No wind83%29.92 "Hg10 mi
4:56 AM49 °FClear.No wind80%29.92 "Hg10 mi
3:56 AM49 °FClear.No wind80%29.92 "Hg10 mi
2:56 AM50 °FClear.No wind77%29.91 "Hg10 mi
1:56 AM53 °FClear.No wind72%29.92 "Hg10 mi
12:56 AM54 °FClear.No wind72%29.92 "Hg10 mi
11:56 PM
Sat, Apr 18
56 °FClear.3 mph67%29.91 "Hg10 mi
10:56 PM62 °FClear.No wind56%29.91 "Hg10 mi
9:56 PM63 °FClear.No wind54%29.90 "Hg10 mi
8:56 PM68 °FClear.No wind45%29.90 "Hg10 mi
7:56 PM71 °FSunny.No wind44%29.88 "Hg10 mi
6:56 PM79 °FSunny.7 mph31%29.88 "Hg7 mi
Weather by CustomWeather, © 2015

See weather overviewHow to use our weather pages